FW3278 Weather Reports


Display with metric or nautical units.
time (UTC)temp
F
wind
direction
speed
MPH
gust
MPH
rain 1hr
in
rain 24hr
in
rain mn
in
humidity
%
barometer
mb
20260510032703 60 157 2.0 8.0 0.00 0.01 0.01 70 1030.1
20260510031803 59 157 2.0 8.0 0.00 0.01 0.01 72 1030.1
20260510030903 60 157 1.0 8.0 0.00 0.01 0.01 70 1030.2
20260510030004 60 157 1.0 3.0 0.00 0.01 0.01 70 1030.3
20260510025403 60 157 1.0 5.0 0.00 0.01 0.01 71 1030.3
20260510024503 60 157 1.0 4.0 0.00 0.01 0.01 71 1030.5
20260510023603 59 157 1.0 4.0 0.00 0.01 0.01 72 1030.6
20260510022703 59 157 1.0 3.0 0.00 0.01 0.01 72 1030.7
20260510021803 58 157 1.0 6.0 0.00 0.01 0.01 72 1030.9
20260510020924 58 157 1.0 4.0 0.00 0.01 0.01 73 1031.0
20260510020024 59 157 0.0 4.0 0.00 0.01 0.01 75 1031.0
20260510015425 58 157 1.0 4.0 0.00 0.01 0.01 75 1031.1
20260510014504 58 157 0.0 4.0 0.00 0.01 0.01 74 1031.2
20260510013603 58 0 0.0 2.0 0.00 0.01 0.01 76 1031.3
20260510012703 58 157 0.0 1.0 0.00 0.01 0.01 76 1031.4
20260510011824 58 157 0.0 2.0 0.00 0.01 0.01 78 1031.5
20260510010903 57 0 0.0 2.0 0.00 0.01 0.01 79 1031.4
20260510010003 56 0 0.0 3.0 0.00 0.01 0.01 81 1031.4
20260510005404 56 0 0.0 2.0 0.00 0.01 0.01 83 1031.4
20260510004503 56 0 0.0 1.0 0.00 0.01 0.01 84 1031.4
20260510003603 56 0 0.0 2.0 0.00 0.01 0.01 86 1031.5
20260510002703 55 157 0.0 3.0 0.00 0.01 0.01 89 1031.5
20260510001803 56 0 0.0 2.0 0.00 0.01 0.01 91 1031.4
20260510000903 56 0 0.0 2.0 0.00 0.01 0.01 93 1031.4
20260510000003 55 157 0.0 3.0 0.00 0.01 0.01 93 1031.4
20260509235403 55 157 0.0 3.0 0.00 0.01 0.01 94 1031.4
20260509234503 55 0 0.0 2.0 0.00 0.01 0.01 95 1031.3
20260509233603 54 0 0.0 2.0 0.00 0.01 0.01 94 1031.3
20260509232703 54 0 0.0 2.0 0.00 0.01 0.01 95 1031.2
20260509231803 54 0 0.0 0.0 0.00 0.01 0.01 95 1031.3
20260509230903 54 0 0.0 2.0 0.00 0.01 0.01 94 1031.3
20260509230024 54 0 0.0 1.0 0.00 0.01 0.01 94 1031.3
20260509225403 54 0 0.0 0.0 0.00 0.01 0.01 95 1031.2
20260509224524 54 0 0.0 0.0 0.00 0.01 0.01 95 1031.2
20260509223603 54 0 0.0 0.0 0.00 0.01 0.01 95 1031.1
20260509222704 53 0 0.0 0.0 0.00 0.01 0.01 95 1031.0
20260509221803 53 0 0.0 0.0 0.00 0.01 0.01 95 1030.9
20260509220903 53 0 0.0 0.0 0.00 0.01 0.01 94 1030.8
20260509220003 53 0 0.0 0.0 0.00 0.01 0.01 94 1030.6
20260509215403 53 0 0.0 0.0 0.00 0.01 0.01 94 1030.6
20260509214503 53 0 0.0 0.0 0.00 0.01 0.01 94 1030.5
20260509213603 52 0 0.0 0.0 0.00 0.01 0.01 94 1030.3
20260509212703 52 0 0.0 0.0 0.00 0.01 0.01 94 1030.2
20260509211803 52 0 0.0 0.0 0.00 0.01 0.01 94 1030.1
20260509210903 52 0 0.0 0.0 0.00 0.01 0.01 94 1030.0
20260509210003 52 0 0.0 0.0 0.00 0.01 0.01 94 1029.9
20260509205403 53 0 0.0 0.0 0.00 0.01 0.01 94 1029.9
20260509204503 53 0 0.0 0.0 0.00 0.02 0.01 94 1029.7
20260509203603 53 0 0.0 0.0 0.00 0.02 0.01 94 1029.7
20260509202724 53 0 0.0 0.0 0.00 0.02 0.01 94 1029.6
20260509201803 53 0 0.0 0.0 0.00 0.02 0.01 94 1029.6
20260509200903 53 0 0.0 0.0 0.00 0.02 0.01 94 1029.5
20260509200003 53 0 0.0 0.0 0.00 0.02 0.01 94 1029.5
20260509195403 53 0 0.0 0.0 0.00 0.02 0.01 94 1029.3
20260509194503 53 0 0.0 0.0 0.00 0.02 0.01 94 1029.3
20260509193603 53 0 0.0 0.0 0.00 0.02 0.01 94 1029.2
20260509192703 53 0 0.0 0.0 0.00 0.02 0.01 94 1029.1
20260509191824 53 0 0.0 0.0 0.00 0.02 0.01 94 1029.1
20260509190924 53 0 0.0 0.0 0.00 0.02 0.01 94 1029.0
20260509190003 53 0 0.0 1.0 0.00 0.02 0.01 94 1029.0
20260509185403 53 0 0.0 1.0 0.00 0.02 0.01 94 1028.9
20260509184503 53 0 0.0 1.0 0.00 0.02 0.01 94 1028.7
20260509183602 53 0 0.0 0.0 0.00 0.02 0.01 94 1028.7
20260509182703 54 0 0.0 0.0 0.00 0.02 0.01 94 1028.6
20260509181803 54 0 0.0 0.0 0.00 0.02 0.01 94 1028.6
20260509180903 54 0 0.0 0.0 0.00 0.02 0.01 93 1028.5
20260509180003 54 0 0.0 1.0 0.00 0.02 0.01 93 1028.4
20260509175403 54 0 0.0 3.0 0.00 0.02 0.01 93 1028.4
20260509174503 54 0 0.0 0.0 0.00 0.02 0.01 93 1028.5
20260509173603 54 0 0.0 0.0 0.00 0.02 0.01 93 1028.4
20260509172703 54 0 0.0 0.0 0.00 0.02 0.01 93 1028.4
20260509171803 54 0 0.0 0.0 0.00 0.02 0.01 93 1028.5
20260509170924 54 0 0.0 0.0 0.00 0.02 0.01 93 1028.5
20260509170024 54 0 0.0 0.0 0.01 0.02 0.01 93 1028.4
20260509165403 54 0 0.0 0.0 0.01 0.02 0.01 93 1028.5
20260509164503 54 0 0.0 0.0 0.01 0.02 0.01 93 1028.6
20260509163603 54 0 0.0 0.0 0.01 0.02 0.01 93 1028.6
20260509162724 54 0 0.0 0.0 0.01 0.02 0.01 93 1028.5
20260509161803 54 0 0.0 0.0 0.01 0.02 0.01 93 1028.6
20260509160903 54 157 1.0 2.0 0.01 0.02 0.01 93 1028.6
20260509160003 54 157 0.0 3.0 0.00 0.01 0.00 93 1028.7
20260509155403 54 0 0.0 3.0 0.00 0.01 0.00 93 1028.7
20260509154524 55 0 0.0 0.0 0.00 0.01 0.00 93 1028.7
20260509153603 55 0 0.0 1.0 0.00 0.01 0.00 93 1028.7
20260509152724 54 0 0.0 2.0 0.00 0.01 0.00 93 1028.7
20260509151803 54 0 0.0 0.0 0.00 0.01 0.00 93 1028.7
20260509150903 54 0 0.0 1.0 0.00 0.01 0.00 92 1028.8
20260509150003 54 0 0.0 0.0 0.00 0.01 0.00 92 1028.8
20260509145403 54 0 0.0 0.0 0.00 0.01 0.00 92 1028.7
20260509144524 54 0 0.0 1.0 0.00 0.01 0.00 92 1028.8
20260509143603 54 0 0.0 1.0 0.00 0.01 0.00 92 1028.8
20260509142702 54 0 0.0 0.0 0.00 0.01 0.00 92 1028.7
20260509141802 54 0 0.0 0.0 0.00 0.01 0.00 92 1028.8
20260509140903 54 0 0.0 0.0 0.00 0.01 0.00 92 1028.8
20260509140004 55 0 0.0 0.0 0.00 0.01 0.00 92 1028.7
20260509135402 55 0 0.0 0.0 0.00 0.01 0.01 92 1028.7
20260509134503 55 0 0.0 0.0 0.00 0.01 0.01 92 1028.8
20260509133602 55 0 0.0 0.0 0.00 0.01 0.01 91 1028.8
20260509132702 55 0 0.0 0.0 0.00 0.01 0.01 91 1028.8
20260509131824 55 0 0.0 1.0 0.00 0.01 0.01 92 1028.9
20260509130902 55 0 0.0 0.0 0.00 0.01 0.01 91 1028.9
20260509130003 55 0 0.0 0.0 0.00 0.01 0.01 91 1028.9
20260509125423 55 0 0.0 0.0 0.00 0.01 0.01 91 1028.9
20260509124503 55 0 0.0 0.0 0.00 0.01 0.01 91 1028.9
20260509123602 55 0 0.0 0.0 0.00 0.02 0.01 91 1028.9
20260509122702 55 0 0.0 0.0 0.00 0.02 0.01 91 1028.9
20260509121802 55 0 0.0 0.0 0.00 0.02 0.01 91 1029.0
20260509120903 55 0 0.0 0.0 0.00 0.02 0.01 91 1029.0
20260509120023 55 0 0.0 0.0 0.00 0.02 0.01 91 1029.0
20260509115424 55 0 0.0 0.0 0.00 0.02 0.01 91 1028.9
20260509114523 55 0 0.0 1.0 0.00 0.02 0.01 91 1028.8
20260509113603 55 0 0.0 0.0 0.00 0.02 0.01 91 1028.7
20260509112702 55 0 0.0 0.0 0.00 0.02 0.01 91 1028.7
20260509111803 55 0 0.0 0.0 0.00 0.02 0.01 90 1028.6
20260509110923 55 0 0.0 0.0 0.00 0.02 0.01 91 1028.6
20260509110002 55 0 0.0 0.0 0.00 0.02 0.01 91 1028.5
20260509105402 55 0 0.0 0.0 0.00 0.02 0.01 91 1028.5
20260509104503 56 157 0.0 2.0 0.00 0.02 0.01 90 1028.4
20260509103602 56 157 1.0 3.0 0.00 0.02 0.01 90 1028.4
20260509102702 56 157 0.0 4.0 0.00 0.02 0.01 90 1028.4
20260509101802 56 0 0.0 0.0 0.00 0.02 0.01 90 1028.4
20260509095404 56 0 0.0 0.0 0.00 0.02 0.01 90 1028.4
20260509094504 56 0 0.0 0.0 0.00 0.02 0.01 90 1028.3
20260509093624 57 0 0.0 1.0 0.00 0.02 0.01 90 1028.3
20260509092704 57 0 0.0 0.0 0.00 0.02 0.01 90 1028.3
20260509091804 57 0 0.0 0.0 0.00 0.02 0.01 89 1028.2
20260509090904 57 0 0.0 0.0 0.00 0.02 0.01 89 1028.1
20260509090025 57 0 0.0 0.0 0.00 0.02 0.01 89 1028.1
20260509085403 57 0 0.0 0.0 0.00 0.02 0.01 89 1028.0
20260509084504 57 0 0.0 1.0 0.00 0.02 0.01 89 1027.9
20260509083603 57 0 0.0 2.0 0.00 0.02 0.01 89 1027.9
20260509082704 57 0 0.0 0.0 0.00 0.02 0.01 89 1027.7
20260509081804 57 0 0.0 1.0 0.00 0.02 0.01 89 1027.7
20260509080904 58 0 0.0 0.0 0.00 0.02 0.01 89 1027.6
20260509080004 57 0 0.0 0.0 0.00 0.02 0.01 89 1027.5
20260509075425 57 157 0.0 2.0 0.00 0.02 0.01 89 1027.4
20260509074504 57 157 0.0 3.0 0.00 0.02 0.01 88 1027.2
20260509073604 58 157 1.0 3.0 0.00 0.02 0.01 88 1027.2
20260509072704 58 157 1.0 3.0 0.00 0.02 0.01 88 1027.1
20260509071804 58 157 1.0 3.0 0.00 0.02 0.01 87 1027.1
20260509070924 58 157 1.0 2.0 0.00 0.02 0.01 87 1027.1
20260509070004 58 157 1.0 2.0 0.00 0.02 0.01 86 1027.1
20260509065404 59 157 1.0 3.0 0.00 0.02 0.01 86 1026.9
20260509064504 59 157 1.0 2.0 0.00 0.02 0.01 85 1026.9
20260509063604 59 157 1.0 4.0 0.00 0.02 0.01 85 1027.0
20260509062703 59 157 1.0 4.0 0.00 0.02 0.01 85 1026.9
20260509061804 60 157 0.0 3.0 0.00 0.02 0.01 85 1026.8
20260509060904 60 157 1.0 4.0 0.00 0.02 0.01 84 1026.8
20260509060004 60 157 2.0 5.0 0.00 0.02 0.01 84 1026.7
20260509055404 60 157 1.0 6.0 0.00 0.02 0.01 84 1026.8
20260509054503 60 157 1.0 4.0 0.00 0.02 0.01 83 1026.7
20260509053603 60 157 1.0 4.0 0.00 0.03 0.01 82 1026.7
20260509052703 61 157 1.0 3.0 0.00 0.03 0.01 81 1026.6
20260509051804 61 157 1.0 3.0 0.00 0.03 0.01 80 1026.6
20260509050903 62 157 1.0 2.0 0.00 0.03 0.01 80 1026.7
20260509050004 62 157 1.0 4.0 0.00 0.03 0.01 79 1026.6
20260509045403 62 157 1.0 4.0 0.00 0.03 0.01 78 1026.7
20260509044504 62 157 1.0 4.0 0.00 0.03 0.01 79 1026.7
20260509043603 62 157 1.0 3.0 0.00 0.03 0.01 79 1026.7
20260509042724 62 157 1.0 5.0 0.00 0.03 0.01 79 1026.6
20260509041825 62 157 0.0 3.0 0.00 0.03 0.01 79 1026.7
20260509040924 61 157 1.0 3.0 0.00 0.03 0.01 81 1026.7
20260509040004 61 157 1.0 6.0 0.00 0.03 0.01 80 1026.7
20260509035403 61 157 1.0 6.0 0.00 0.03 0.01 80 1026.8
20260509034503 61 157 2.0 4.0 0.00 0.03 0.01 80 1026.7
20260509033603 61 157 1.0 5.0 0.00 0.03 0.01 80 1026.7